Wind_Speed
42 41 41 40 38 37 36 37 40 44 45 45 46 46 47 46 45 44 41 39 37 35 33 31 29 25 25 23 20 18 19 21 20 20 23 21 15 14 14 9 5 6 9 8 7 8 11 10 10 10 8 9 8 7 10 9 8 7 5 6 6 6 5 5 6 3 3 6 9 10 12 9 7 9 7 6 7 5 6 7 7 7 8 8 5 5 10 14
42 41 41 41 38 37 36 36 38 42 45 46 45 46 47 46 46 44 42 41 39 38 35 33 30 28 27 24 22 19 19 21 20 24 29 25 19 19 17 11 8 7 8 8 8 9 11 12 11 10 8 9 8 7 9 7 9 8 4 6 6 4 4 4 6 5 3 6 10 11 12 7 5 10 9 7 8 9 8 8 9 8 8 10 9 6 9 13
43 41 42 41 40 38 37 36 36 39 44 46 45 46 46 46 46 44 43 42 40 40 38 36 33 30 28 26 24 21 21 21 21 28 33 28 25 26 21 13 10 11 11 9 9 11 13 12 10 10 9 9 8 7 7 7 9 7 4 6 5 5 6 5 6 6 5 6 9 11 10 6 5 9 9 8 7 9 9 9 10 11 12 11 11 9 9 14
44 41 41 40 39 39 38 36 36 37 42 45 46 46 46 45 45 44 44 43 42 41 39 37 33 31 29 28 25 23 21 15 22 32 29 27 30 28 22 15 11 12 14 12 10 12 13 12 10 10 9 8 7 6 7 8 7 5 5 4 3 9 7 5 6 6 6 5 7 10 9 7 6 7 8 7 6 7 9 10 10 10 13 14 14 12 10 14
46 42 40 39 37 37 37 36 37 37 39 43 46 47 46 44 43 43 43 42 42 41 39 37 33 30 29 29 27 23 17 7 20 32 25 24 30 30 26 19 16 16 15 14 11 12 13 11 10 10 9 8 7 7 8 10 6 5 5 4 2 6 5 7 6 6 7 5 6 9 9 8 7 7 9 9 6 2 3 7 8 6 9 13 14 13 12 14
47 43 41 39 37 36 36 36 36 37 38 40 44 46 45 44 44 43 42 41 42 40 38 36 34 31 30 32 29 24 19 5 11 24 25 25 29 33 31 24 23 20 16 16 13 13 13 11 11 10 10 8 8 8 6 9 7 5 5 0 3 1 4 7 5 6 7 6 7 8 8 8 9 8 8 11 9 2 5 5 7 6 9 12 12 12 13 14
48 45 41 39 37 35 35 35 35 37 38 39 42 45 45 44 44 43 42 41 41 39 36 34 33 31 32 31 24 23 22 13 6 14 21 27 31 34 32 27 25 22 19 17 15 15 13 13 13 11 10 7 8 9 4 6 9 7 4 6 1 4 5 6 5 7 6 5 6 6 6 8 9 7 5 11 11 3 4 5 5 6 10 12 12 12 12 14
49 45 41 39 37 34 33 34 35 37 38 38 39 42 44 43 44 42 41 42 41 38 35 32 31 31 34 31 21 19 25 23 14 11 12 19 29 33 32 29 25 22 21 18 17 17 14 15 14 12 9 6 7 8 6 5 9 10 3 6 4 4 5 5 5 6 4 4 6 6 6 5 5 4 4 10 10 8 10 8 7 6 6 9 12 13 12 13
49 45 42 40 38 34 32 32 35 38 39 38 37 40 42 42 43 43 40 41 40 37 34 31 30 31 32 30 20 14 25 31 24 15 8 7 16 27 31 29 26 24 22 19 18 17 15 15 15 12 7 5 6 6 8 8 7 8 3 5 5 4 4 4 4 4 3 4 6 7 6 3 3 4 7 11 10 11 13 11 12 11 8 8 9 12 13 14
50 47 43 41 38 34 33 34 36 38 40 39 37 37 39 40 42 44 42 39 38 36 32 30 29 30 30 28 20 11 20 30 29 24 16 8 7 19 28 27 26 24 21 20 19 18 17 15 15 14 7 2 5 4 8 8 2 5 7 7 5 4 4 2 3 4 3 4 6 5 5 3 3 3 5 9 13 15 14 12 15 14 14 13 11 11 13 14
50 47 43 40 38 34 34 37 37 38 41 39 36 35 37 39 40 43 42 39 38 34 31 31 29 29 30 29 21 13 15 20 22 25 23 14 8 14 23 24 24 23 20 20 21 20 17 14 15 16 7 2 5 4 6 6 0 7 11 8 5 4 3 2 3 5 2 4 6 2 2 3 3 4 5 7 11 13 13 12 15 16 14 15 15 15 14 15
49 46 43 40 37 34 34 38 39 38 40 39 36 34 35 37 37 40 41 40 38 33 32 32 30 30 29 26 23 16 12 12 13 18 23 20 12 11 19 22 21 21 19 19 21 20 17 12 14 14 6 3 5 4 4 7 3 8 11 6 5 3 4 4 3 4 2 3 7 1 2 5 7 10 10 9 10 10 11 10 11 14 14 14 16 17 17 16
50 46 43 41 37 35 35 38 39 37 39 38 36 34 34 34 36 39 41 39 37 34 33 31 30 31 27 20 24 20 13 11 10 13 20 22 14 10 18 20 20 20 19 18 18 19 18 14 12 13 10 5 3 3 3 6 5 7 8 4 6 5 6 7 4 4 2 3 8 4 4 7 11 16 13 12 13 11 10 9 8 10 11 15 18 19 19 19
50 46 43 40 37 36 37 38 37 37 38 36 35 33 32 33 35 38 39 37 35 33 33 31 30 31 22 15 18 20 19 15 11 11 17 20 14 12 17 19 19 19 18 19 17 16 18 14 9 11 10 6 3 5 4 6 5 6 5 4 6 6 6 8 6 7 5 5 8 4 5 7 7 12 11 12 14 12 10 10 10 10 10 13 17 19 19 19
49 45 43 40 39 39 37 37 37 38 38 35 33 31 31 32 34 35 35 34 33 33 32 31 31 26 16 14 12 15 21 21 14 11 15 16 14 14 19 19 18 17 17 18 16 14 16 14 9 8 7 5 6 7 5 4 5 6 5 6 7 6 5 7 6 7 4 5 8 6 5 8 4 9 8 11 12 11 11 11 10 10 10 11 14 18 19 19
47 44 42 41 41 41 38 39 40 40 37 34 31 30 32 32 32 32 31 32 32 32 31 29 32 22 8 11 11 12 20 24 18 13 14 15 15 17 19 17 16 16 16 15 14 13 15 12 7 5 6 6 7 7 5 5 5 7 7 7 7 7 5 5 5 5 2 4 9 9 5 6 3 7 5 8 9 10 11 11 11 11 11 11 11 14 17 19
45 44 43 43 43 41 41 42 40 38 35 33 32 30 31 30 30 30 28 31 31 32 30 25 29 17 7 10 11 13 21 26 22 15 14 17 17 18 18 16 15 15 14 13 12 12 14 11 6 5 5 6 8 7 6 7 7 7 7 6 7 9 7 4 2 4 5 4 8 10 8 9 3 6 5 7 7 7 9 10 10 10 11 12 12 13 16 17
46 45 44 45 44 43 45 42 38 37 36 34 32 31 30 27 27 27 27 30 29 28 22 20 25 12 9 14 11 12 20 25 23 16 15 19 18 18 17 16 16 15 13 11 10 12 13 10 6 6 6 7 9 8 8 8 8 8 8 7 5 8 11 7 3 5 9 6 7 9 10 14 11 5 6 8 8 7 7 8 8 9 10 11 12 13 16 17
47 45 46 46 45 45 45 41 39 38 38 35 32 30 27 25 24 21 26 32 29 20 9 19 27 7 3 15 15 13 16 21 22 16 16 19 19 18 16 16 17 17 14 9 8 11 11 8 6 7 7 9 10 11 10 6 7 10 11 9 6 7 9 6 4 4 6 6 8 12 11 13 14 11 9 9 11 9 9 8 9 10 11 11 12 13 15 18
47 46 47 46 45 45 43 43 43 41 41 38 38 37 28 26 18 11 25 32 28 17 6 21 31 6 4 16 23 17 14 19 21 18 17 20 20 18 15 15 17 14 10 8 8 9 10 7 7 9 9 12 13 13 8 1 3 9 10 10 7 6 6 5 6 3 2 4 10 13 13 13 13 12 12 11 11 11 11 12 13 13 13 13 13 13 14 16
47 47 47 46 46 43 41 45 45 43 41 42 48 38 27 34 19 15 33 26 18 15 8 24 32 9 0 15 25 22 17 18 19 20 19 21 22 17 15 15 13 9 7 9 9 7 8 7 9 12 10 10 12 10 4 0 3 6 7 8 7 7 4 4 5 4 2 3 7 9 10 14 14 12 13 14 12 12 14 15 17 17 16 16 15 16 15 15
48 48 48 46 46 42 41 47 45 42 40 44 47 27 24 35 19 27 40 16 7 11 10 27 28 9 5 14 22 23 19 14 16 22 22 24 23 15 13 13 10 7 6 8 8 6 7 9 11 11 5 4 4 4 4 4 4 5 5 6 7 5 3 4 4 5 4 3 3 3 7 11 13 13 14 15 15 16 16 16 17 18 17 18 16 15 16 18
48 48 48 45 44 42 43 47 44 42 42 46 41 21 23 27 17 32 36 14 10 11 11 27 23 9 9 15 22 22 17 13 13 21 26 26 21 14 14 13 9 9 8 9 9 6 7 7 7 7 8 6 3 4 6 6 5 5 5 6 5 5 5 3 5 6 4 4 2 3 6 9 11 12 13 17 18 16 15 15 16 18 20 19 17 15 16 20
50 49 47 44 43 42 45 47 43 43 45 43 33 23 23 22 26 38 27 11 10 6 9 22 17 12 13 16 22 20 15 14 14 22 30 27 18 13 14 13 10 9 9 12 12 9 6 1 0 4 7 9 7 7 9 7 6 6 6 6 4 6 5 1 5 7 3 4 3 4 6 8 10 12 12 11 11 12 12 13 16 20 25 25 23 23 23 24
50 49 45 44 43 44 45 45 43 45 44 37 29 25 25 29 38 37 18 9 8 5 8 16 12 11 14 17 20 16 13 13 15 24 31 26 19 14 11 10 8 9 12 14 12 10 4 1 1 4 6 9 9 8 10 8 7 6 7 8 3 3 5 5 7 6 2 5 5 3 6 6 6 12 13 6 5 8 10 10 14 16 20 23 25 26 26 27
51 47 46 45 44 47 46 43 45 45 40 35 31 31 34 40 41 29 13 5 6 6 8 13 12 12 14 15 18 15 10 10 15 26 32 26 20 15 10 7 3 6 12 11 7 4 2 2 2 5 7 7 7 7 9 9 8 6 4 6 3 0 3 7 7 5 3 2 2 3 6 5 3 7 9 6 5 8 8 8 12 12 12 15 18 20 22 24
51 47 47 47 47 51 46 42 47 45 38 35 34 37 43 45 35 22 10 2 6 9 8 10 12 14 13 15 22 15 6 11 14 22 30 25 18 13 9 8 3 2 5 6 4 1 4 5 2 5 7 7 7 7 8 10 9 3 1 2 5 4 5 8 7 6 3 1 2 3 5 5 5 4 5 5 5 7 9 9 10 10 9 9 11 15 18 21
50 47 47 48 50 49 40 39 48 46 40 37 37 43 46 41 30 17 6 2 6 9 8 8 9 13 13 17 23 9 4 16 12 13 26 23 17 11 7 9 8 6 4 4 7 1 4 6 6 8 8 7 6 2 5 11 8 1 2 1 4 4 5 7 6 5 1 1 3 6 4 4 7 4 4 4 5 9 10 11 10 9 8 7 8 12 16 18
50 48 48 49 48 42 30 33 43 43 38 37 40 45 43 35 24 10 2 4 6 6 8 11 10 13 13 15 17 5 5 11 4 12 25 19 15 8 3 8 10 8 3 0 3 1 2 2 3 6 6 5 3 5 2 5 4 3 3 3 5 3 2 4 5 4 2 4 7 6 7 5 6 5 5 4 5 9 9 8 8 8 6 5 5 9 12 14
49 49 50 49 49 40 26 28 40 39 37 38 42 44 39 28 15 6 4 5 6 6 7 11 12 15 16 14 11 7 7 2 3 16 19 12 11 7 5 9 8 8 3 3 4 3 2 2 1 1 1 1 5 6 6 3 4 8 7 6 6 3 3 2 3 2 4 6 5 3 3 4 5 5 5 3 2 4 5 5 6 6 6 4 3 6 8 10
50 50 51 51 48 37 26 33 43 41 38 41 44 43 32 16 6 6 6 5 6 6 5 10 14 16 20 16 9 9 8 3 7 16 12 8 8 7 8 8 5 5 3 2 4 3 3 3 2 2 2 2 4 5 6 3 5 6 5 6 5 3 3 3 3 3 6 6 1 2 1 3 6 5 2 1 2 2 2 4 6 6 6 4 2 2 5 7
50 50 50 50 43 32 32 43 46 41 40 44 47 40 22 7 5 7 6 8 8 7 8 12 15 16 19 17 10 10 8 6 10 13 10 9 8 8 9 6 6 5 4 6 4 3 4 3 2 3 1 4 4 5 5 1 3 3 5 8 5 4 4 5 5 5 6 3 2 1 0 3 7 8 6 5 3 3 2 1 4 6 5 4 2 1 3 6
49 49 47 47 41 32 36 45 44 41 42 46 42 27 11 6 8 9 8 8 5 6 10 14 15 16 19 15 10 11 9 6 11 12 10 10 8 8 4 3 9 5 3 7 5 3 3 1 3 3 2 6 7 5 5 4 6 7 8 8 7 6 5 6 6 5 6 1 2 1 1 3 6 7 9 9 4 5 6 3 4 6 5 3 2 2 4 8
46 46 44 43 39 32 35 43 43 42 46 45 30 12 7 9 9 9 10 6 3 7 11 14 16 17 18 13 11 13 7 5 10 10 9 10 8 8 5 5 10 4 2 7 5 5 6 3 5 4 3 7 8 3 1 4 8 7 4 4 6 6 5 5 5 5 4 2 1 2 2 5 4 0 2 2 2 4 8 7 4 4 4 2 3 6 6 9
43 42 39 40 39 32 35 44 43 43 48 39 16 5 9 9 7 10 10 6 6 9 13 16 17 16 15 9 10 14 5 2 11 9 8 11 9 9 9 8 10 6 6 7 3 5 7 3 2 1 1 5 5 1 2 2 6 3 1 2 5 4 1 1 1 1 1 1 2 4 3 5 3 2 3 5 4 4 7 8 6 4 4 3 5 7 8 10
40 37 32 37 39 32 38 46 42 44 46 28 8 7 10 6 5 8 8 8 9 12 15 16 13 12 12 7 9 13 3 1 11 9 7 11 9 10 10 8 11 10 8 7 3 3 7 2 2 2 2 1 1 2 2 1 3 2 2 3 2 1 2 2 1 2 0 4 3 5 4 5 4 6 5 6 6 6 7 7 7 6 6 5 6 8 10 14
39 34 29 34 36 33 43 47 41 46 39 15 7 10 6 2 2 4 9 12 14 17 16 12 9 10 12 8 9 14 6 4 10 7 7 9 8 11 12 8 13 15 11 8 3 2 5 2 2 1 2 3 3 2 2 3 1 2 3 4 2 1 1 1 2 1 2 5 3 4 6 6 4 4 2 5 6 8 8 7 7 8 8 7 8 11 15 18
37 32 26 30 33 36 44 45 42 45 28 5 9 12 3 2 1 5 14 16 16 17 13 9 8 10 12 10 10 14 11 8 9 7 7 7 6 12 14 8 11 16 12 5 1 2 4 3 1 2 1 3 2 1 2 0 1 0 2 1 2 2 3 3 3 3 4 6 4 5 7 6 5 4 2 5 8 9 9 9 9 10 10 10 11 14 18 21
35 28 20 24 32 36 42 42 40 36 16 3 10 10 3 4 1 5 18 19 15 14 11 9 9 8 11 12 12 14 14 11 11 9 7 7 5 10 16 10 7 12 12 6 2 3 3 2 1 1 1 3 2 2 5 5 2 0 2 1 0 1 3 3 4 4 4 5 5 4 5 4 6 7 7 7 9 10 13 12 10 11 13 14 15 17 21 24
32 19 12 22 30 35 41 38 30 20 8 6 8 5 5 6 1 3 11 14 10 8 8 11 11 8 10 13 13 13 13 12 12 9 8 9 7 7 14 13 8 10 11 7 3 3 2 1 2 2 1 2 3 4 5 5 5 4 4 5 4 2 1 1 3 3 3 5 6 5 5 4 3 6 9 10 7 8 12 12 9 10 14 16 18 22 26 27
27 11 10 24 29 34 39 28 15 10 6 6 5 3 5 7 6 5 5 6 4 1 3 8 11 9 9 12 13 11 10 10 11 9 7 10 10 6 10 13 11 10 8 4 4 4 3 2 3 4 3 4 2 0 1 0 2 4 5 7 7 6 3 3 4 3 1 3 4 4 5 3 1 2 5 6 2 1 3 6 7 10 13 16 21 26 29 30
19 7 12 25 29 37 35 15 6 9 6 5 4 5 6 7 8 8 5 4 3 2 1 4 7 8 8 10 11 11 11 9 11 11 8 11 12 7 8 11 14 16 11 5 4 2 2 2 4 3 3 2 1 2 2 0 0 2 3 4 5 6 6 6 6 4 3 2 1 2 4 3 1 1 2 0 3 3 1 1 5 11 16 18 23 28 31 33
13 10 16 26 31 36 26 7 5 8 4 4 6 6 6 6 7 8 7 5 3 1 2 3 4 6 6 7 9 12 12 8 9 12 9 10 9 3 7 13 17 17 10 5 4 1 2 3 4 3 2 1 0 2 2 1 1 3 4 4 5 6 6 5 2 1 3 4 3 3 5 4 0 1 1 2 1 1 1 3 4 9 14 19 24 29 32 34
15 15 18 24 31 30 16 5 9 10 5 7 7 5 4 3 5 9 9 8 5 4 6 4 3 4 4 5 8 12 13 7 8 11 8 7 6 3 7 16 18 13 8 6 9 8 4 4 4 4 3 2 3 3 2 3 3 5 6 6 8 6 2 1 1 3 3 6 7 6 7 5 1 1 0 1 1 2 3 5 7 8 12 19 26 30 33 34
14 12 13 22 31 27 11 2 5 9 9 10 9 9 7 3 3 6 8 7 4 4 6 5 4 6 6 6 7 10 13 7 5 9 7 4 4 3 5 16 17 12 6 6 14 15 7 4 6 6 5 6 6 6 6 5 4 4 4 5 9 9 6 4 4 5 5 6 8 7 7 6 1 1 2 2 3 4 4 7 11 9 12 20 27 30 33 34
8 4 7 15 23 23 13 5 3 6 11 11 8 10 11 7 4 4 5 6 3 2 4 4 6 8 8 10 9 9 13 5 2 5 8 5 4 2 2 10 14 11 4 5 15 15 4 2 8 10 10 10 10 10 8 7 6 7 10 11 12 14 13 9 5 6 8 7 6 8 10 11 6 4 6 5 5 7 6 7 11 10 12 20 27 30 32 33
3 1 4 6 9 12 12 11 9 5 10 13 7 9 13 11 8 6 4 3 5 6 4 3 7 9 10 13 11 9 12 7 3 4 8 7 4 4 2 4 7 8 5 6 14 10 3 4 9 11 13 13 13 12 11 11 10 12 15 16 15 15 14 11 8 10 11 8 7 10 12 14 12 7 8 8 8 8 7 9 13 13 15 20 26 29 30 31
2 2 4 4 4 5 8 13 14 10 13 15 8 9 15 13 11 10 5 1 5 7 3 2 8 12 14 15 10 8 11 8 5 6 6 5 5 5 4 2 2 4 3 5 8 4 2 8 9 9 12 12 7 5 7 10 11 11 13 13 14 15 14 13 13 14 13 9 10 14 15 16 14 11 10 10 9 9 8 10 12 14 16 21 26 28 29 30
4 4 4 4 2 1 3 9 14 13 13 14 9 9 16 16 13 11 6 4 5 7 5 6 11 14 16 16 11 9 11 10 8 7 4 5 6 5 4 3 3 4 3 4 4 1 2 7 9 9 10 12 7 5 6 9 9 10 12 11 11 13 14 15 15 16 16 14 14 18 19 16 11 10 10 9 10 10 8 7 11 15 21 25 28 29 30 31
4 4 4 5 3 2 3 9 13 12 9 12 11 9 13 17 15 10 6 6 9 9 6 7 11 13 13 14 12 10 12 13 10 9 9 7 5 5 5 4 4 4 4 4 2 1 2 5 10 9 6 10 8 5 5 7 8 10 11 8 8 11 13 14 13 15 16 16 17 19 17 14 9 8 9 7 9 10 8 9 13 18 24 28 30 31 32 34
6 7 7 6 3 1 3 7 11 11 10 11 11 8 12 18 16 10 5 3 4 7 8 9 11 10 7 10 12 9 11 10 5 9 17 13 8 10 8 5 8 7 4 5 4 3 3 2 5 7 6 9 9 7 7 5 3 7 7 6 9 10 11 12 13 15 15 15 17 16 13 12 9 7 8 7 9 8 8 11 14 17 23 30 33 34 36 37
8 8 8 5 3 2 2 5 9 9 8 10 12 10 11 14 13 11 7 2 1 2 7 10 11 9 5 10 12 7 9 9 7 9 20 12 6 11 8 6 13 12 6 7 5 3 5 4 4 7 8 10 10 8 6 5 2 7 7 10 13 12 12 13 13 15 15 14 14 12 12 12 6 6 8 6 7 8 9 15 18 19 24 32 37 38 39 39
Wind_Direction
208 207 208 210 210 210 210 210 211 213 214 211 208 208 208 208 209 209 209 209 210 210 209 211 213 210 206 209 213 218 217 217 220 222 219 206 204 223 228 217 198 245 254 242 247 250 240 229 236 236 224 210 212 220 213 214 212 207 217 213 209 208 187 171 175 154 123 126 138 163 181 186 160 173 194 190 196 197 176 180 195 197 207 223 226 217 209 200
208 208 209 211 211 212 211 211 211 212 215 214 210 209 209 210 210 209 209 210 211 211 211 212 215 215 213 214 218 222 223 224 229 228 216 201 203 218 227 227 212 240 256 242 232 238 243 234 227 225 211 204 212 214 211 212 206 211 222 210 218 200 133 129 145 118 92 127 145 166 184 196 164 164 183 200 193 192 197 190 193 188 196 217 216 217 216 200
207 208 209 211 212 213 213 211 210 209 213 215 213 211 210 210 210 210 210 210 211 211 213 214 214 216 216 218 223 225 226 231 237 231 219 206 206 214 222 231 226 237 250 248 236 235 245 246 232 216 209 210 206 205 210 200 203 221 230 221 206 141 102 107 134 117 93 113 149 166 174 184 157 155 178 210 196 189 210 194 187 192 190 203 208 209 206 194
206 206 207 209 210 212 213 211 208 205 209 213 214 213 212 210 209 210 211 211 211 212 214 216 217 217 218 220 222 224 220 230 239 230 223 214 210 211 217 226 232 243 246 245 243 235 240 250 237 212 211 215 194 200 209 189 197 207 210 248 159 140 128 126 127 122 120 121 152 156 164 179 164 164 184 212 209 196 218 202 190 198 187 192 202 204 202 194
205 204 206 208 208 210 213 210 206 204 206 210 214 214 213 211 209 209 211 211 211 213 215 217 219 219 221 219 215 212 202 220 244 232 224 217 212 211 217 226 237 251 247 238 240 235 234 240 230 212 214 215 188 201 210 192 201 205 206 325 55 152 145 131 127 138 147 144 154 153 168 173 159 180 198 215 230 180 172 181 184 191 168 181 200 206 203 198
203 204 205 208 209 210 213 211 205 206 206 206 211 214 213 212 210 209 209 210 212 213 215 217 220 221 222 216 205 193 183 201 250 226 220 215 209 212 220 231 240 246 242 231 231 231 231 225 215 208 210 214 200 199 199 190 207 230 207 226 18 40 103 123 136 156 152 155 166 161 163 156 167 193 202 221 239 81 102 156 183 192 173 182 204 211 209 207
201 202 204 207 210 210 212 212 205 205 207 207 210 212 213 212 211 210 208 209 212 212 214 216 219 221 220 213 192 175 189 217 216 191 207 212 209 215 225 233 236 235 230 224 222 225 225 214 207 209 210 210 207 198 182 183 208 248 215 159 112 31 92 123 148 162 149 155 162 157 163 167 190 195 190 225 235 226 208 194 180 185 184 199 212 212 215 218
201 201 203 205 209 209 208 210 204 202 207 208 209 210 211 210 211 211 209 209 211 211 211 212 216 215 215 210 181 173 202 213 203 174 184 209 214 218 225 228 226 222 221 218 214 217 217 212 206 207 215 212 203 193 177 179 207 239 238 135 132 56 96 124 145 161 157 168 159 163 175 170 200 202 210 228 221 220 233 219 196 186 173 194 207 210 213 216
201 201 201 205 210 208 205 207 203 202 205 206 206 208 209 208 208 210 210 210 209 209 204 205 209 202 204 203 179 188 216 210 210 213 202 222 221 211 214 219 215 210 215 215 212 213 213 214 208 205 229 224 200 188 182 194 209 217 188 109 126 86 95 118 128 147 162 174 162 171 174 144 190 228 243 228 210 214 228 230 225 223 217 207 202 208 213 215
200 199 201 205 207 204 202 203 203 204 204 205 207 206 207 206 204 208 210 210 209 206 197 196 197 188 187 186 177 206 224 214 217 225 229 253 233 200 201 205 205 204 209 211 208 209 212 216 209 210 240 248 200 195 188 202 212 157 133 105 110 88 97 118 120 142 148 159 172 184 167 134 164 216 240 207 207 225 228 230 233 231 231 229 221 214 213 218
197 196 200 202 203 201 199 200 201 203 203 205 206 205 206 205 202 204 208 208 208 202 192 190 189 185 181 178 187 213 219 217 221 226 232 243 237 203 199 198 198 201 207 211 207 206 212 220 214 210 228 260 195 189 193 204 71 135 135 109 104 96 117 134 127 156 162 158 182 211 153 145 148 207 239 190 199 222 220 222 232 233 230 228 227 222 218 219
195 195 198 199 199 197 196 199 200 201 203 204 206 207 207 205 202 201 202 204 203 197 189 187 187 184 178 185 207 219 217 221 224 225 227 230 235 211 200 198 195 200 206 212 212 207 207 215 214 206 213 243 179 162 195 192 157 154 160 144 143 159 174 168 136 166 225 181 175 187 215 208 202 216 227 204 200 204 198 205 223 231 225 221 225 223 221 220
194 194 196 195 196 195 195 198 198 199 201 203 204 204 203 202 199 196 197 198 195 190 186 185 187 181 176 199 218 216 218 225 230 228 217 218 231 214 199 198 196 201 205 208 214 211 207 206 207 206 219 249 172 142 156 152 151 168 189 203 168 196 203 172 153 172 224 174 169 189 246 232 214 209 205 199 207 202 197 202 208 221 218 219 226 225 223 222
191 193 193 193 193 191 193 195 197 197 196 198 200 201 199 195 194 191 191 190 186 183 183 184 184 179 183 214 222 216 219 223 230 227 211 213 224 208 194 196 198 200 203 204 209 211 207 202 203 208 221 243 153 143 128 129 170 176 188 221 193 211 187 151 154 173 185 167 171 205 250 254 210 180 183 198 207 202 208 219 213 212 213 221 228 227 226 225
190 192 191 193 191 188 192 193 193 192 191 195 198 198 194 190 189 186 184 183 180 177 178 181 177 176 199 227 228 224 220 220 225 219 207 208 213 200 190 194 197 197 200 202 204 204 201 195 199 203 192 187 160 162 162 151 190 185 184 206 206 216 163 138 155 174 191 164 178 210 236 253 207 136 166 201 205 207 218 225 217 211 211 219 228 230 229 229
188 190 190 190 188 188 191 189 188 188 190 193 191 191 189 188 183 178 177 174 172 173 174 177 175 172 209 224 219 222 214 214 217 214 203 198 201 195 187 190 194 195 196 198 199 196 194 191 200 198 153 163 181 186 185 172 191 196 204 208 195 207 182 145 158 178 201 153 190 221 251 254 181 116 168 202 199 209 219 225 221 218 217 216 222 229 230 230
186 188 188 187 185 187 187 186 186 185 190 187 181 184 185 181 174 168 167 166 167 170 169 171 175 182 245 227 213 209 206 207 206 209 200 190 192 188 183 184 186 189 187 187 189 181 184 184 185 195 173 190 203 196 194 192 197 192 208 220 188 200 206 174 146 168 183 191 208 218 243 256 222 117 162 192 189 198 215 227 226 224 224 220 220 225 229 230
184 185 185 185 184 185 186 184 183 183 182 177 177 181 175 165 160 158 157 159 158 160 165 172 173 187 246 218 203 197 203 202 197 204 197 183 184 183 181 180 176 174 164 163 171 170 176 176 181 200 195 208 208 198 203 202 201 189 194 213 186 197 214 205 166 158 176 206 225 210 223 247 248 196 166 175 183 198 221 230 235 234 227 221 221 226 230 232
182 183 183 185 184 184 186 185 183 183 176 174 177 166 149 140 142 150 155 154 153 155 174 183 177 184 262 191 188 192 199 194 192 202 193 179 177 178 178 174 167 163 155 153 168 173 174 172 193 211 202 204 207 207 213 214 208 195 191 209 207 201 213 194 108 130 182 204 219 220 227 240 245 234 212 194 189 208 237 242 247 245 235 229 225 226 229 232
181 182 182 183 182 183 186 185 185 182 176 178 168 147 137 141 136 153 163 160 166 174 192 178 180 204 26 170 182 185 179 179 191 199 188 178 170 165 163 159 160 165 168 169 164 169 179 185 199 209 208 204 208 213 215 242 224 205 198 212 221 214 208 161 104 106 197 219 220 226 237 245 249 245 239 225 203 209 233 243 250 247 241 236 229 228 228 232
180 180 182 181 181 183 184 183 183 180 181 179 161 149 158 160 153 175 168 165 183 191 192 173 179 204 98 169 177 174 162 164 186 194 185 176 165 158 157 156 163 175 177 163 146 150 184 207 209 208 213 204 204 210 207 221 225 217 211 209 219 222 200 115 104 120 140 236 232 224 242 251 253 254 250 242 228 225 227 233 244 245 242 239 234 233 231 233
178 179 181 180 182 183 181 182 183 181 180 173 163 159 171 167 171 173 159 141 159 165 164 168 175 198 185 172 171 166 157 152 178 189 182 172 168 166 166 170 179 168 148 149 143 149 192 221 214 195 172 146 166 185 208 236 232 231 225 216 225 210 155 109 116 127 143 223 235 214 252 258 256 256 252 244 241 240 234 231 236 238 239 239 236 235 234 239
177 179 179 180 181 181 182 184 185 183 176 171 170 166 167 172 173 159 146 114 131 135 150 169 177 187 159 164 169 162 156 154 170 183 180 173 175 177 170 177 184 154 152 174 171 175 194 218 213 159 130 138 146 181 211 233 233 232 225 224 221 171 170 202 159 143 160 222 287 321 283 269 259 254 250 241 237 237 233 227 225 227 232 234 232 232 233 239
177 178 177 180 179 179 182 182 183 181 175 173 174 161 160 167 154 148 138 112 136 124 161 174 179 182 167 164 170 167 164 165 169 181 180 174 176 177 172 180 179 159 175 191 191 196 191 182 325 135 156 184 184 186 205 218 223 227 226 233 223 167 173 41 125 145 167 213 252 298 286 271 248 239 242 231 222 228 226 223 226 230 236 239 240 241 240 241
176 177 178 178 178 178 179 178 179 177 173 176 173 156 155 158 151 148 135 116 142 127 165 177 173 180 180 170 171 171 167 164 171 182 179 176 176 170 168 182 183 181 188 190 198 209 198 63 171 152 164 194 192 191 201 208 219 221 219 229 248 180 157 105 126 155 207 218 201 223 259 269 228 222 230 204 180 218 214 218 230 230 234 241 244 247 247 247
176 177 179 177 175 175 174 177 179 174 175 179 167 153 155 155 152 151 139 126 167 141 154 179 178 185 189 180 169 161 164 173 178 182 178 179 180 168 161 170 179 197 184 179 202 223 149 114 175 160 160 179 195 211 201 201 224 223 217 219 211 214 154 139 157 187 234 230 152 194 242 261 217 208 213 189 190 216 199 208 225 216 215 228 237 243 246 247
177 177 176 174 174 174 172 175 176 173 178 178 161 154 156 154 154 158 147 145 185 156 149 172 180 183 182 176 170 162 156 163 166 179 180 180 182 178 177 169 151 189 159 148 191 195 121 144 159 159 166 174 193 218 193 193 223 224 11 230 181 186 191 167 179 213 242 50 118 198 240 266 260 221 161 160 210 226 211 211 214 206 203 211 226 237 242 246
176 175 174 175 177 174 171 172 173 174 176 169 157 157 157 155 160 164 158 189 164 146 151 165 172 176 169 169 175 175 131 155 157 179 181 180 178 182 201 187 173 159 136 167 191 161 102 157 167 159 172 190 197 241 176 190 217 228 25 307 158 171 198 184 199 222 238 329 223 197 191 248 258 233 144 158 232 239 229 214 198 194 198 201 223 239 245 248
175 174 174 174 175 173 173 177 174 172 169 160 156 157 155 156 162 164 201 194 147 129 154 159 162 170 167 169 176 177 141 160 159 168 175 180 177 181 208 178 161 136 104 252 174 65 43 157 173 166 183 190 138 30 16 206 207 151 146 102 94 105 150 177 216 220 185 246 244 192 179 234 264 242 196 178 227 238 234 208 178 177 182 189 224 245 252 251
174 174 173 172 172 172 173 177 172 165 159 156 156 156 153 155 161 169 203 187 146 138 146 154 166 168 165 169 177 178 165 144 83 147 162 173 171 169 121 128 129 124 105 30 81 68 40 89 51 109 178 136 98 63 21 7 120 141 153 120 103 119 131 167 222 222 221 235 238 152 166 244 272 252 217 190 233 245 228 189 160 164 169 175 219 246 253 249
174 174 173 171 171 172 169 170 168 161 155 156 156 156 155 154 173 189 175 146 134 141 144 157 165 166 170 174 171 172 166 109 131 149 152 158 158 150 136 131 117 122 144 138 109 90 85 120 140 79 90 134 115 89 43 31 144 154 164 146 134 139 149 197 195 197 236 234 190 72 38 244 242 242 208 93 10 324 260 206 176 169 161 154 165 232 241 232
173 173 172 171 171 171 170 168 163 157 157 158 156 157 156 144 200 204 158 140 153 171 178 169 165 168 177 179 165 161 159 136 163 168 161 165 167 167 172 177 163 150 184 185 153 124 119 115 122 85 116 200 178 124 86 70 190 202 184 168 179 183 177 212 203 200 231 227 103 99 312 241 245 248 246 268 272 205 237 253 159 155 145 133 122 114 210 198
173 172 170 172 173 171 170 165 157 157 159 157 156 160 161 160 192 197 168 160 160 159 165 164 163 166 172 178 167 158 157 152 172 178 169 170 174 176 194 202 179 182 198 170 149 150 159 116 156 149 171 213 212 173 147 172 193 198 192 186 199 192 185 208 204 208 225 205 87 178 220 253 261 259 249 261 258 170 161 126 112 125 123 115 138 166 174 172
171 168 168 173 174 170 169 164 159 160 159 156 157 163 176 182 189 185 175 171 127 133 150 152 153 161 171 182 168 156 160 159 166 171 169 172 176 181 194 202 196 199 122 155 157 171 187 198 178 167 155 185 202 214 156 168 183 196 204 207 213 208 209 211 205 212 203 119 112 189 207 232 236 136 180 212 56 125 153 158 151 141 139 131 164 172 162 161
165 165 168 172 173 171 168 166 164 164 160 157 157 172 186 189 187 181 172 148 136 140 142 145 148 159 173 177 163 166 176 167 172 175 172 180 188 186 186 192 197 188 153 163 161 175 197 215 145 72 62 167 178 286 356 151 174 187 345 236 229 233 218 186 204 198 153 73 169 187 235 247 252 287 202 160 136 152 164 173 188 187 179 170 165 165 158 158
159 164 170 172 173 170 166 167 168 166 163 159 158 185 195 198 184 180 157 128 144 141 135 147 155 163 171 167 167 176 184 115 175 183 186 192 201 192 188 187 185 186 179 171 145 169 192 195 51 54 63 94 69 23 352 316 173 162 178 198 216 354 69 128 162 92 60 272 209 170 235 256 266 272 232 162 162 173 171 180 185 183 189 185 169 167 166 162
157 163 169 172 172 167 166 170 170 169 167 165 180 187 194 193 175 165 137 127 139 141 139 152 169 176 174 168 177 179 163 139 173 188 189 191 206 197 194 190 180 188 194 184 179 200 180 138 37 54 116 75 22 36 49 7 25 137 182 178 143 28 32 169 234 168 194 249 224 170 222 239 240 248 162 144 181 180 175 186 177 170 182 186 176 174 173 166
153 153 158 170 172 167 168 172 172 170 168 172 202 197 180 97 89 133 137 134 141 151 157 160 169 189 183 170 177 175 164 162 177 191 185 183 205 194 189 189 183 190 192 173 154 188 174 159 51 14 89 99 57 144 151 66 355 355 255 213 135 214 214 191 218 222 211 236 243 206 216 233 233 225 171 170 189 184 183 190 185 175 176 182 179 175 175 172
146 143 145 167 170 167 170 171 170 169 167 193 205 205 152 102 29 145 144 143 151 162 172 167 161 188 192 178 170 167 172 178 173 180 192 187 190 185 185 185 178 188 184 160 148 156 160 208 195 47 33 108 116 212 194 182 171 345 290 250 86 261 231 200 210 230 233 237 247 224 204 223 223 220 228 212 192 190 191 192 194 187 179 181 179 174 177 176
143 133 140 166 167 167 169 166 163 167 181 207 200 187 137 124 116 187 150 146 156 170 182 176 163 170 184 180 169 163 179 186 173 183 202 185 177 190 193 187 167 173 171 154 165 143 112 232 188 108 51 162 174 210 208 188 174 181 194 184 185 202 221 263 236 232 245 240 245 245 236 239 202 201 225 225 209 197 193 191 190 181 174 177 179 180 180 177
142 118 142 165 166 165 162 156 159 179 197 207 195 143 137 132 139 173 159 135 132 111 184 172 163 166 169 173 171 162 172 185 181 191 202 189 195 210 201 190 164 146 142 146 185 166 136 186 157 139 175 191 183 26 334 233 164 192 201 192 196 189 165 211 219 191 223 244 246 262 263 259 114 155 229 223 187 89 181 187 172 166 171 176 181 184 183 178
135 105 147 165 168 162 157 151 180 197 204 197 154 104 128 139 147 163 162 140 117 56 113 150 151 163 164 169 171 161 164 181 187 193 203 205 207 202 193 187 158 148 155 173 183 146 74 116 122 128 165 185 126 57 53 1 288 253 246 220 211 200 192 213 218 185 186 217 309 311 277 265 92 50 316 342 78 57 48 164 151 168 181 184 184 185 183 181
111 100 141 165 169 161 157 159 189 196 220 164 112 85 120 143 146 154 162 168 154 112 156 140 133 159 166 168 167 164 167 176 189 196 205 208 207 181 168 169 155 156 168 165 155 115 64 122 126 115 94 53 113 116 108 149 236 248 241 224 218 211 202 214 244 219 189 181 179 233 251 252 163 78 345 356 29 39 238 212 166 166 181 185 184 185 184 183
102 105 133 163 170 165 166 187 185 192 192 152 139 116 113 122 141 158 174 182 175 165 162 146 145 160 153 157 163 169 173 177 199 205 208 200 188 102 139 161 160 165 179 179 174 172 170 167 151 142 144 164 193 193 195 200 209 225 223 212 215 219 182 95 296 268 231 194 195 222 249 249 216 83 179 179 205 239 238 213 192 171 176 182 182 183 184 185
109 104 124 156 171 179 196 237 184 192 174 159 166 159 139 113 146 168 173 166 156 169 160 140 146 141 131 149 159 171 182 187 200 201 207 200 167 79 142 167 171 179 194 190 172 164 168 189 164 166 180 184 195 207 202 190 188 209 219 208 210 211 198 188 218 240 229 201 195 217 249 252 211 114 202 185 176 207 212 199 197 190 184 183 181 182 185 185
120 105 121 150 173 195 225 274 258 202 176 168 171 170 164 152 152 181 175 159 155 155 125 117 144 136 137 161 163 174 188 184 64 178 197 188 141 61 152 172 180 187 185 176 168 158 144 219 188 197 205 202 213 219 199 171 161 187 203 205 204 204 202 204 217 225 222 221 214 215 235 248 240 183 196 204 193 200 199 188 192 192 185 184 183 184 185 186
118 130 135 142 170 198 221 231 234 220 182 177 171 177 177 157 145 174 202 187 181 169 114 98 161 160 161 170 169 179 186 172 86 163 188 180 124 67 95 162 188 187 162 172 176 159 115 199 203 216 220 220 225 219 194 175 177 194 202 205 207 203 199 201 215 225 223 228 237 226 226 241 243 209 192 203 204 202 198 190 193 191 184 184 186 186 187 187
90 123 152 153 160 190 206 208 209 201 183 182 178 176 178 165 155 172 187 156 180 185 169 155 187 183 173 169 165 170 177 178 183 182 172 157 130 107 109 100 185 183 157 172 180 166 168 195 203 220 230 235 228 183 178 186 195 207 207 205 205 199 193 198 215 228 225 222 239 238 229 234 241 228 212 206 197 198 202 195 192 187 183 186 188 188 189 190
95 101 144 156 129 183 184 178 190 197 188 184 187 185 183 178 169 165 152 130 174 204 208 190 192 189 178 173 170 166 170 179 190 185 149 132 142 140 141 153 174 176 171 165 174 215 221 197 199 208 233 241 215 145 175 198 202 214 218 211 196 187 192 201 214 227 228 226 237 244 243 244 243 232 229 215 187 182 186 182 186 190 191 191 191 190 191 193
115 106 140 146 84 45 131 152 174 195 195 190 195 193 191 190 178 155 139 155 174 190 205 195 183 180 178 179 180 182 185 188 187 175 155 139 151 175 175 171 155 147 170 174 162 216 219 198 192 190 234 247 220 169 186 203 209 219 220 206 177 177 194 206 217 228 230 233 241 248 254 260 250 226 220 198 164 157 161 180 195 201 200 195 191 192 195 196
124 115 125 134 96 61 156 155 172 191 195 195 196 186 191 197 185 153 139 183 182 173 185 182 163 153 163 185 195 201 187 177 151 156 166 164 171 186 184 161 146 142 173 188 164 171 190 194 186 182 218 240 226 210 198 180 219 240 228 192 177 183 195 202 213 220 218 226 239 245 250 255 247 217 198 176 161 162 177 196 202 204 203 200 197 197 199 199
126 120 119 118 102 134 171 162 174 190 194 196 200 191 187 192 184 162 155 183 337 148 179 176 152 139 164 195 200 192 155 138 82 135 169 172 162 174 175 161 162 159 164 178 176 178 180 184 183 178 208 230 224 215 192 147 204 249 229 200 193 198 206 208 217 222 215 216 228 233 239 245 235 187 192 188 171 177 196 209 213 211 207 206 204 202 202 202
Height
1434 1438 1441 1444 1448 1451 1453 1456 1459 1462 1465 1468 1471 1474 1477 1480 1483 1486 1490 1493 1496 1499 1501 1504 1506 1509 1510 1512 1514 1516 1518 1519 1520 1520 1519 1520 1522 1523 1524 1526 1527 1528 1529 1529 1530 1530 1531 1532 1532 1532 1532 1532 1532 1531 1532 1532 1532 1533 1531 1532 1532 1530 1530 1528 1528 1530 1530 1532 1536 1539 1539 1538 1541 1544 1545 1545 1546 1547 1547 1548 1549 1550 1551 1552 1553 1555 1555 1555
1431 1435 1438 1441 1445 1448 1451 1454 1457 1460 1462 1465 1469 1472 1475 1478 1481 1485 1488 1491 1494 1497 1500 1503 1505 1507 1509 1512 1514 1516 1518 1518 1519 1518 1517 1520 1522 1523 1524 1526 1527 1529 1529 1529 1530 1531 1532 1532 1532 1531 1532 1531 1531 1531 1531 1531 1532 1531 1529 1530 1529 1526 1526 1525 1526 1529 1529 1532 1535 1537 1539 1539 1539 1542 1545 1545 1545 1546 1546 1547 1548 1549 1549 1550 1552 1554 1554 1555
1428 1432 1436 1439 1443 1446 1449 1452 1454 1458 1460 1463 1466 1470 1473 1476 1480 1483 1486 1489 1492 1495 1498 1501 1504 1506 1509 1511 1513 1516 1517 1518 1518 1514 1514 1519 1521 1522 1524 1525 1527 1529 1529 1530 1529 1531 1531 1532 1532 1531 1531 1530 1530 1531 1530 1530 1531 1529 1528 1530 1526 1523 1526 1526 1527 1530 1531 1532 1534 1537 1539 1539 1540 1542 1544 1543 1543 1544 1544 1544 1546 1547 1547 1548 1550 1552 1553 1554
1425 1429 1433 1436 1440 1444 1446 1450 1453 1456 1458 1461 1464 1467 1471 1474 1478 1481 1484 1487 1490 1494 1497 1500 1503 1505 1507 1509 1513 1514 1516 1519 1514 1510 1514 1518 1519 1521 1523 1524 1526 1528 1529 1530 1530 1530 1531 1532 1532 1531 1531 1529 1529 1530 1529 1529 1530 1528 1528 1528 1524 1522 1526 1528 1529 1531 1532 1533 1534 1536 1538 1539 1540 1541 1543 1542 1542 1542 1541 1541 1543 1544 1545 1546 1548 1550 1552 1553
1423 1426 1431 1434 1437 1441 1444 1448 1451 1454 1457 1459 1462 1465 1469 1473 1476 1479 1482 1485 1489 1492 1495 1499 1501 1504 1506 1508 1511 1513 1517 1521 1511 1508 1514 1516 1518 1520 1522 1524 1525 1527 1528 1529 1529 1530 1530 1531 1532 1531 1530 1528 1528 1530 1528 1527 1529 1528 1526 1526 1524 1523 1526 1529 1530 1531 1532 1534 1535 1536 1538 1538 1539 1541 1541 1541 1541 1540 1539 1540 1542 1543 1544 1545 1546 1548 1550 1552
1420 1424 1428 1431 1435 1439 1442 1446 1449 1453 1455 1458 1460 1463 1467 1471 1474 1477 1480 1484 1487 1490 1493 1497 1500 1503 1505 1505 1507 1510 1515 1517 1508 1508 1513 1514 1517 1519 1521 1523 1524 1526 1528 1528 1529 1529 1530 1531 1531 1530 1529 1527 1527 1527 1527 1527 1529 1528 1526 1526 1527 1526 1527 1529 1530 1531 1533 1534 1535 1536 1537 1538 1539 1540 1540 1540 1539 1539 1539 1541 1542 1543 1544 1544 1545 1547 1548 1550
1418 1422 1426 1429 1432 1436 1440 1444 1448 1451 1454 1456 1458 1461 1465 1469 1472 1475 1478 1482 1485 1488 1492 1496 1499 1501 1504 1503 1505 1509 1512 1511 1508 1508 1511 1513 1515 1516 1519 1522 1523 1525 1526 1527 1528 1529 1530 1530 1530 1529 1528 1527 1526 1526 1526 1527 1528 1528 1526 1526 1528 1528 1528 1530 1531 1531 1533 1534 1535 1536 1537 1538 1539 1539 1540 1539 1539 1540 1540 1541 1542 1542 1543 1544 1545 1546 1547 1548
1416 1420 1424 1427 1429 1434 1438 1442 1446 1449 1452 1455 1457 1460 1464 1467 1470 1473 1477 1480 1483 1487 1491 1494 1497 1499 1502 1502 1505 1510 1509 1507 1507 1507 1509 1511 1513 1515 1517 1519 1520 1522 1523 1525 1526 1528 1529 1529 1528 1528 1527 1526 1525 1525 1526 1528 1528 1528 1526 1527 1529 1530 1530 1531 1531 1532 1533 1534 1535 1536 1537 1538 1539 1539 1539 1538 1538 1539 1539 1541 1542 1542 1543 1543 1544 1545 1546 1547
1414 1418 1422 1425 1427 1431 1437 1441 1444 1448 1451 1453 1455 1458 1462 1465 1469 1472 1474 1478 1481 1485 1488 1492 1495 1498 1501 1502 1507 1511 1505 1503 1506 1506 1507 1510 1510 1512 1514 1516 1518 1520 1521 1523 1525 1527 1528 1527 1527 1527 1526 1525 1525 1525 1526 1527 1527 1527 1527 1529 1530 1531 1531 1532 1532 1533 1534 1534 1535 1535 1536 1538 1539 1540 1538 1536 1537 1537 1538 1540 1540 1542 1543 1543 1544 1544 1545 1546
1411 1415 1419 1422 1425 1429 1434 1439 1443 1446 1449 1452 1454 1457 1460 1464 1467 1470 1472 1476 1479 1482 1486 1490 1493 1497 1499 1503 1509 1509 1501 1502 1505 1505 1507 1508 1509 1510 1511 1513 1515 1517 1520 1521 1523 1525 1526 1526 1526 1527 1526 1525 1524 1525 1525 1526 1526 1526 1528 1530 1531 1532 1533 1533 1533 1534 1534 1535 1535 1535 1536 1538 1539 1541 1537 1534 1536 1536 1537 1539 1539 1540 1542 1542 1543 1543 1544 1545
1408 1412 1417 1420 1423 1427 1432 1437 1441 1444 1448 1451 1453 1456 1459 1462 1466 1469 1471 1475 1478 1480 1485 1489 1492 1495 1498 1502 1505 1502 1499 1502 1504 1504 1506 1508 1509 1509 1509 1512 1513 1516 1518 1520 1522 1523 1525 1526 1525 1527 1527 1525 1524 1525 1525 1526 1526 1527 1528 1530 1533 1533 1533 1533 1533 1535 1535 1535 1535 1535 1536 1538 1540 1540 1535 1532 1534 1535 1536 1537 1538 1539 1540 1541 1542 1542 1543 1543
1406 1410 1414 1418 1421 1425 1430 1435 1439 1443 1446 1450 1453 1454 1457 1461 1464 1468 1471 1474 1477 1481 1485 1489 1491 1495 1499 1501 1500 1498 1499 1500 1502 1503 1505 1506 1508 1508 1509 1511 1513 1515 1517 1519 1520 1522 1524 1525 1525 1526 1526 1524 1524 1525 1526 1526 1527 1528 1528 1530 1533 1533 1533 1534 1534 1535 1535 1535 1536 1536 1538 1537 1537 1535 1532 1532 1533 1534 1535 1536 1536 1537 1539 1540 1540 1541 1541 1542
1403 1408 1412 1416 1420 1424 1429 1433 1437 1441 1445 1449 1452 1453 1456 1460 1464 1467 1470 1473 1477 1481 1486 1488 1492 1495 1499 1499 1496 1497 1498 1499 1500 1502 1503 1505 1507 1507 1509 1511 1512 1514 1516 1518 1519 1521 1523 1524 1525 1525 1525 1524 1524 1525 1525 1526 1528 1529 1528 1528 1532 1534 1532 1532 1534 1535 1535 1536 1536 1538 1539 1533 1527 1528 1529 1530 1532 1533 1534 1535 1536 1536 1537 1538 1538 1539 1540 1540
1400 1405 1410 1414 1418 1422 1427 1432 1436 1440 1444 1448 1450 1452 1455 1459 1463 1466 1469 1474 1478 1482 1486 1488 1492 1496 1498 1496 1494 1496 1497 1498 1500 1500 1502 1504 1506 1507 1508 1510 1512 1513 1515 1517 1518 1520 1522 1523 1525 1524 1524 1524 1524 1526 1526 1527 1528 1527 1529 1529 1528 1532 1532 1530 1533 1534 1535 1537 1536 1538 1540 1530 1521 1524 1527 1529 1531 1532 1533 1534 1535 1535 1536 1536 1537 1537 1538 1539
1398 1403 1408 1412 1416 1421 1426 1431 1435 1439 1443 1446 1449 1451 1455 1459 1463 1466 1470 1474 1478 1482 1485 1489 1492 1497 1497 1494 1492 1494 1495 1498 1499 1500 1501 1503 1505 1506 1507 1509 1511 1513 1514 1516 1517 1519 1521 1522 1524 1523 1524 1524 1525 1526 1525 1527 1527 1526 1531 1533 1527 1529 1531 1531 1533 1533 1533 1536 1537 1538 1538 1528 1522 1524 1527 1528 1530 1531 1532 1533 1533 1534 1534 1535 1535 1536 1537 1537
1396 1401 1406 1410 1414 1420 1425 1430 1434 1438 1442 1446 1448 1451 1455 1459 1462 1466 1470 1474 1479 1482 1485 1489 1492 1495 1494 1491 1490 1492 1494 1496 1497 1500 1501 1502 1504 1505 1507 1509 1510 1512 1514 1516 1517 1519 1520 1522 1523 1523 1523 1525 1524 1523 1524 1528 1529 1526 1528 1530 1529 1529 1529 1530 1533 1533 1533 1535 1536 1537 1534 1526 1523 1526 1527 1528 1529 1530 1531 1531 1532 1532 1533 1533 1534 1534 1535 1536
1394 1399 1403 1408 1413 1419 1423 1428 1432 1436 1441 1445 1447 1451 1455 1459 1462 1466 1471 1475 1479 1482 1485 1489 1493 1495 1491 1487 1488 1489 1490 1493 1496 1499 1500 1501 1504 1505 1507 1508 1510 1512 1513 1516 1517 1518 1520 1522 1523 1523 1523 1523 1521 1520 1526 1532 1530 1527 1526 1524 1526 1528 1528 1530 1533 1533 1534 1535 1534 1535 1534 1527 1523 1525 1527 1527 1528 1530 1530 1530 1530 1531 1531 1532 1533 1533 1533 1534
1392 1397 1401 1406 1412 1417 1422 1426 1431 1436 1440 1443 1446 1451 1455 1459 1463 1467 1471 1475 1479 1484 1489 1489 1493 1495 1488 1483 1486 1487 1487 1491 1495 1498 1500 1501 1503 1505 1506 1508 1509 1511 1514 1516 1517 1518 1520 1521 1522 1522 1522 1522 1519 1518 1525 1527 1523 1525 1527 1525 1525 1526 1525 1526 1530 1531 1533 1535 1534 1534 1534 1528 1523 1524 1526 1527 1528 1528 1529 1529 1530 1529 1530 1530 1530 1531 1532 1532
1390 1394 1399 1405 1411 1416 1420 1425 1430 1435 1437 1441 1446 1452 1457 1462 1466 1470 1472 1473 1476 1480 1482 1480 1482 1484 1479 1477 1482 1485 1487 1491 1495 1498 1499 1500 1502 1504 1506 1508 1509 1511 1513 1515 1516 1518 1518 1520 1523 1522 1521 1520 1517 1515 1517 1516 1514 1518 1521 1522 1523 1525 1524 1523 1527 1531 1532 1534 1534 1531 1529 1526 1523 1522 1523 1524 1526 1527 1527 1527 1528 1528 1528 1528 1529 1529 1529 1530
1388 1393 1399 1404 1409 1414 1418 1423 1429 1432 1434 1437 1443 1449 1454 1457 1464 1470 1471 1471 1470 1470 1471 1471 1475 1477 1475 1476 1480 1484 1487 1491 1494 1497 1499 1500 1502 1504 1506 1508 1509 1511 1512 1512 1515 1517 1517 1520 1521 1519 1516 1516 1515 1514 1514 1513 1513 1514 1517 1519 1520 1523 1523 1522 1528 1532 1532 1532 1530 1526 1525 1524 1522 1520 1519 1522 1523 1524 1525 1525 1525 1526 1527 1527 1527 1527 1527 1528
1386 1392 1398 1402 1408 1412 1417 1422 1427 1429 1432 1436 1438 1439 1440 1442 1446 1451 1457 1465 1469 1468 1469 1470 1475 1477 1476 1477 1478 1481 1485 1489 1493 1496 1498 1500 1501 1503 1505 1506 1508 1510 1510 1510 1513 1516 1517 1519 1516 1513 1512 1512 1513 1514 1514 1515 1515 1515 1516 1520 1521 1521 1522 1524 1528 1531 1533 1533 1527 1523 1526 1523 1520 1519 1518 1519 1520 1520 1521 1521 1522 1523 1524 1524 1524 1525 1525 1526
1386 1391 1396 1402 1406 1411 1416 1421 1425 1428 1433 1437 1436 1435 1436 1436 1436 1437 1446 1460 1467 1468 1470 1471 1475 1477 1476 1478 1479 1480 1483 1487 1492 1495 1496 1499 1500 1501 1503 1504 1505 1507 1508 1510 1513 1518 1520 1517 1511 1510 1511 1512 1514 1515 1516 1517 1517 1517 1518 1520 1521 1519 1522 1527 1530 1531 1533 1533 1526 1525 1528 1522 1518 1517 1516 1516 1515 1515 1517 1517 1518 1520 1520 1522 1522 1522 1523 1524
1385 1390 1396 1401 1405 1410 1415 1420 1424 1428 1431 1433 1433 1434 1436 1438 1439 1443 1450 1458 1465 1470 1471 1472 1475 1476 1476 1478 1479 1480 1482 1485 1489 1492 1494 1497 1498 1499 1501 1502 1503 1505 1508 1509 1511 1517 1519 1514 1509 1510 1511 1513 1516 1517 1517 1518 1518 1518 1518 1520 1521 1520 1522 1526 1529 1532 1532 1532 1530 1529 1529 1522 1516 1514 1512 1511 1512 1512 1513 1514 1515 1516 1517 1518 1519 1520 1520 1520
1384 1389 1395 1399 1405 1410 1414 1420 1425 1427 1429 1430 1432 1434 1436 1439 1441 1447 1452 1457 1464 1469 1471 1473 1474 1476 1476 1477 1479 1481 1482 1484 1486 1489 1492 1494 1496 1498 1499 1500 1501 1504 1507 1506 1508 1512 1513 1513 1511 1511 1512 1513 1517 1518 1518 1520 1519 1518 1518 1519 1519 1519 1522 1524 1527 1531 1532 1533 1533 1532 1531 1520 1511 1511 1508 1506 1509 1509 1510 1511 1512 1513 1513 1515 1516 1516 1517 1517
1383 1389 1394 1398 1404 1409 1415 1421 1423 1425 1429 1430 1432 1433 1436 1440 1442 1447 1450 1457 1466 1469 1471 1473 1474 1475 1476 1477 1478 1480 1481 1483 1485 1487 1490 1492 1494 1496 1497 1498 1500 1502 1504 1505 1507 1508 1510 1514 1514 1513 1514 1513 1516 1518 1517 1519 1519 1519 1518 1516 1516 1517 1520 1525 1529 1531 1532 1533 1530 1532 1536 1520 1503 1505 1505 1502 1506 1507 1507 1509 1509 1509 1510 1511 1512 1512 1513 1514
1382 1388 1393 1397 1402 1408 1414 1418 1419 1425 1428 1429 1429 1431 1436 1438 1443 1446 1447 1456 1466 1468 1471 1472 1472 1474 1474 1477 1478 1480 1483 1483 1484 1486 1488 1491 1492 1493 1495 1497 1499 1500 1501 1503 1507 1507 1510 1515 1514 1513 1515 1515 1517 1518 1516 1517 1519 1519 1518 1516 1517 1518 1521 1526 1529 1529 1530 1531 1530 1531 1535 1523 1506 1501 1501 1501 1504 1505 1505 1506 1505 1506 1507 1507 1509 1509 1509 1510
1381 1386 1391 1396 1400 1404 1408 1411 1417 1422 1424 1425 1426 1430 1434 1437 1442 1442 1446 1463 1467 1462 1467 1470 1470 1472 1472 1475 1477 1479 1482 1481 1483 1487 1487 1490 1492 1492 1494 1496 1498 1500 1499 1503 1510 1509 1510 1515 1515 1513 1515 1517 1518 1517 1515 1516 1519 1520 1519 1518 1518 1519 1523 1526 1527 1528 1527 1528 1532 1531 1531 1530 1519 1505 1499 1502 1504 1503 1502 1503 1502 1503 1505 1505 1506 1506 1506 1507
1380 1385 1389 1394 1399 1403 1407 1409 1412 1415 1417 1421 1424 1429 1433 1436 1442 1440 1449 1470 1466 1455 1462 1467 1468 1470 1471 1475 1476 1476 1477 1476 1481 1486 1486 1489 1492 1492 1493 1494 1496 1499 1500 1503 1509 1509 1509 1513 1514 1513 1515 1516 1516 1515 1514 1515 1518 1521 1523 1521 1519 1520 1522 1523 1525 1527 1526 1530 1534 1529 1529 1534 1524 1505 1500 1503 1503 1501 1499 1498 1500 1501 1502 1503 1504 1504 1504 1504
1379 1384 1388 1394 1400 1406 1410 1410 1410 1412 1416 1421 1424 1430 1432 1438 1442 1440 1450 1464 1457 1451 1457 1462 1466 1469 1470 1473 1475 1476 1475 1476 1479 1482 1486 1489 1491 1492 1493 1493 1495 1499 1501 1501 1504 1509 1511 1513 1512 1511 1513 1513 1515 1518 1516 1515 1517 1521 1524 1522 1522 1523 1523 1524 1526 1525 1529 1536 1534 1526 1527 1532 1523 1503 1499 1504 1502 1499 1495 1494 1497 1499 1501 1502 1502 1502 1502 1502
1378 1383 1387 1393 1399 1404 1407 1410 1412 1414 1417 1421 1425 1430 1434 1439 1441 1447 1460 1458 1447 1451 1457 1459 1463 1464 1468 1472 1473 1475 1476 1477 1478 1481 1487 1490 1491 1493 1493 1494 1495 1499 1503 1503 1507 1512 1512 1512 1513 1513 1513 1514 1517 1520 1520 1519 1519 1521 1522 1522 1525 1526 1525 1527 1525 1524 1533 1537 1533 1530 1529 1532 1528 1505 1494 1500 1499 1494 1493 1494 1497 1499 1500 1501 1501 1501 1501 1501
1378 1382 1387 1391 1396 1400 1403 1406 1409 1412 1416 1420 1425 1430 1434 1439 1440 1449 1460 1446 1439 1454 1457 1456 1459 1460 1463 1466 1469 1474 1475 1478 1480 1481 1485 1488 1490 1492 1492 1496 1497 1501 1507 1507 1510 1513 1513 1514 1514 1514 1516 1516 1516 1518 1521 1522 1520 1521 1520 1521 1528 1530 1530 1532 1529 1532 1540 1537 1533 1538 1536 1536 1533 1509 1491 1495 1496 1494 1494 1494 1496 1498 1499 1500 1501 1501 1500 1500
1379 1383 1387 1391 1396 1399 1400 1402 1405 1410 1415 1418 1424 1428 1430 1441 1445 1444 1445 1437 1438 1450 1450 1450 1453 1455 1460 1462 1466 1472 1474 1478 1480 1479 1481 1484 1488 1488 1488 1490 1493 1502 1509 1507 1510 1513 1512 1514 1514 1515 1517 1516 1515 1517 1524 1525 1522 1521 1518 1521 1530 1534 1538 1540 1537 1537 1538 1535 1537 1541 1539 1537 1526 1503 1492 1493 1494 1495 1495 1494 1495 1497 1499 1500 1500 1500 1500 1500
1379 1383 1388 1393 1396 1399 1401 1404 1407 1410 1414 1417 1423 1425 1427 1441 1444 1432 1432 1434 1434 1438 1439 1444 1448 1451 1458 1461 1464 1469 1472 1476 1478 1478 1480 1481 1485 1487 1487 1486 1486 1493 1499 1501 1508 1513 1514 1515 1515 1516 1516 1515 1512 1514 1522 1525 1522 1520 1516 1520 1527 1532 1542 1546 1539 1536 1533 1535 1540 1540 1540 1536 1518 1498 1491 1491 1491 1493 1494 1495 1496 1497 1499 1500 1500 1500 1500 1499
1379 1383 1388 1393 1397 1400 1402 1405 1408 1409 1413 1417 1422 1425 1429 1437 1432 1422 1427 1432 1430 1433 1436 1440 1446 1451 1456 1458 1461 1465 1470 1476 1476 1477 1480 1481 1484 1486 1486 1485 1484 1485 1490 1497 1504 1507 1512 1513 1511 1512 1512 1511 1511 1510 1513 1515 1516 1517 1512 1515 1520 1521 1529 1535 1531 1528 1529 1535 1543 1545 1539 1526 1509 1497 1491 1490 1492 1493 1494 1495 1497 1498 1499 1499 1500 1500 1500 1500
1380 1385 1389 1392 1396 1399 1401 1405 1407 1409 1413 1415 1419 1425 1429 1428 1421 1418 1423 1427 1429 1434 1436 1439 1445 1452 1456 1458 1460 1461 1465 1473 1476 1476 1479 1479 1479 1480 1480 1481 1482 1482 1486 1494 1499 1499 1503 1506 1507 1511 1509 1508 1511 1511 1510 1511 1515 1518 1514 1516 1519 1512 1514 1527 1534 1530 1530 1534 1538 1541 1531 1508 1495 1492 1488 1490 1493 1492 1494 1495 1496 1499 1499 1499 1500 1500 1501 1501
1381 1386 1389 1392 1394 1397 1400 1404 1406 1410 1412 1412 1418 1423 1419 1414 1412 1412 1416 1421 1427 1431 1436 1444 1447 1450 1456 1460 1461 1462 1463 1469 1474 1476 1477 1476 1475 1475 1475 1475 1477 1479 1480 1486 1493 1495 1499 1505 1510 1512 1511 1511 1512 1512 1512 1513 1515 1518 1518 1519 1517 1512 1513 1526 1538 1536 1535 1533 1523 1522 1520 1502 1494 1491 1484 1488 1491 1490 1494 1494 1495 1498 1498 1499 1501 1500 1502 1502
1379 1384 1387 1390 1393 1395 1399 1402 1406 1410 1412 1411 1414 1414 1408 1407 1409 1410 1412 1419 1425 1427 1433 1443 1447 1446 1451 1457 1459 1461 1462 1467 1473 1474 1474 1476 1473 1470 1471 1472 1472 1474 1474 1477 1485 1488 1492 1505 1513 1511 1511 1513 1513 1513 1514 1513 1514 1517 1520 1516 1513 1516 1517 1518 1527 1533 1535 1531 1516 1512 1513 1504 1501 1496 1487 1488 1490 1489 1491 1493 1494 1497 1497 1499 1500 1500 1502 1502
1377 1382 1386 1389 1392 1394 1397 1402 1406 1409 1411 1412 1411 1408 1405 1408 1410 1409 1412 1416 1421 1425 1429 1436 1440 1440 1443 1450 1454 1457 1461 1465 1471 1472 1471 1474 1471 1463 1467 1471 1470 1472 1472 1474 1481 1482 1484 1500 1514 1514 1513 1514 1513 1514 1515 1515 1514 1515 1515 1512 1512 1520 1521 1518 1524 1528 1530 1528 1517 1510 1510 1505 1501 1494 1486 1487 1488 1486 1488 1491 1492 1494 1496 1498 1499 1500 1501 1502
1375 1381 1386 1389 1391 1394 1397 1401 1406 1409 1412 1412 1409 1405 1405 1410 1412 1411 1412 1415 1418 1423 1425 1427 1433 1436 1439 1442 1445 1452 1457 1459 1465 1469 1467 1469 1468 1461 1462 1467 1469 1472 1473 1473 1479 1482 1482 1492 1508 1515 1514 1513 1515 1515 1514 1514 1515 1516 1515 1513 1514 1516 1515 1514 1515 1514 1518 1522 1516 1511 1511 1504 1493 1485 1481 1482 1483 1482 1485 1487 1488 1491 1493 1495 1497 1498 1500 1501
1372 1378 1385 1389 1390 1394 1397 1402 1407 1409 1409 1405 1401 1402 1403 1409 1414 1413 1412 1414 1416 1419 1421 1421 1427 1433 1436 1436 1440 1447 1452 1454 1458 1463 1462 1462 1465 1463 1460 1462 1466 1471 1473 1475 1477 1481 1485 1490 1501 1514 1516 1514 1514 1512 1508 1507 1510 1514 1514 1514 1515 1515 1514 1515 1510 1505 1510 1515 1511 1510 1510 1495 1479 1477 1477 1477 1478 1478 1480 1483 1485 1488 1490 1493 1495 1497 1499 1501
1370 1375 1384 1388 1390 1392 1397 1403 1406 1405 1403 1399 1398 1401 1404 1407 1412 1414 1414 1414 1416 1418 1418 1418 1423 1429 1432 1434 1437 1442 1449 1452 1454 1458 1458 1457 1459 1460 1458 1458 1462 1467 1473 1478 1478 1479 1485 1489 1498 1513 1516 1512 1509 1508 1507 1507 1507 1508 1508 1507 1508 1509 1513 1518 1515 1509 1509 1510 1506 1507 1507 1490 1475 1475 1476 1475 1478 1478 1479 1481 1483 1486 1489 1491 1493 1495 1497 1500
1368 1375 1382 1387 1389 1391 1395 1400 1402 1400 1399 1399 1399 1401 1404 1407 1410 1413 1415 1415 1417 1418 1419 1419 1422 1426 1429 1431 1433 1438 1445 1449 1452 1453 1454 1452 1451 1454 1456 1457 1461 1465 1469 1475 1476 1476 1481 1487 1498 1509 1510 1508 1508 1509 1511 1511 1509 1508 1506 1504 1502 1503 1506 1511 1512 1509 1509 1512 1509 1509 1510 1493 1477 1478 1479 1477 1480 1480 1481 1482 1483 1485 1488 1490 1492 1494 1496 1498
1368 1374 1382 1386 1389 1391 1394 1398 1401 1399 1399 1399 1399 1402 1405 1406 1409 1413 1415 1416 1417 1419 1419 1421 1423 1426 1429 1430 1432 1436 1441 1446 1449 1448 1448 1450 1451 1452 1455 1457 1460 1464 1468 1472 1475 1478 1480 1485 1496 1507 1508 1507 1508 1509 1509 1511 1510 1508 1506 1504 1502 1500 1499 1501 1503 1501 1504 1509 1508 1511 1511 1494 1478 1480 1482 1480 1481 1481 1482 1483 1483 1485 1486 1488 1491 1492 1494 1497
1369 1374 1381 1386 1390 1392 1392 1393 1394 1395 1396 1398 1400 1404 1406 1406 1408 1411 1413 1414 1416 1417 1418 1421 1423 1425 1428 1430 1432 1435 1438 1444 1448 1447 1447 1449 1452 1454 1456 1457 1460 1462 1465 1467 1469 1474 1480 1482 1490 1504 1511 1511 1511 1511 1510 1510 1510 1505 1500 1500 1500 1498 1499 1502 1502 1500 1501 1502 1501 1505 1505 1488 1478 1481 1482 1481 1482 1481 1482 1483 1484 1485 1486 1487 1489 1491 1493 1496
1369 1376 1382 1387 1391 1392 1390 1388 1387 1390 1395 1398 1400 1403 1405 1407 1409 1410 1411 1413 1415 1415 1416 1420 1422 1423 1427 1430 1432 1434 1435 1439 1444 1446 1448 1449 1452 1456 1457 1457 1460 1461 1462 1464 1464 1468 1476 1478 1482 1495 1505 1507 1506 1503 1499 1498 1502 1501 1498 1498 1498 1498 1500 1501 1501 1503 1504 1499 1496 1500 1495 1481 1478 1482 1481 1481 1482 1481 1481 1483 1483 1484 1485 1486 1487 1489 1491 1494
1368 1375 1382 1387 1392 1392 1390 1389 1388 1389 1392 1396 1399 1401 1403 1406 1410 1411 1411 1413 1415 1415 1415 1419 1421 1423 1428 1430 1433 1435 1435 1437 1441 1444 1447 1449 1453 1457 1458 1458 1460 1461 1463 1466 1466 1467 1473 1475 1476 1481 1485 1486 1486 1483 1479 1483 1491 1495 1495 1495 1494 1495 1496 1497 1499 1501 1498 1495 1495 1493 1487 1480 1479 1480 1480 1480 1480 1479 1479 1481 1482 1483 1484 1485 1486 1488 1490 1492
1369 1373 1377 1382 1388 1391 1391 1391 1390 1387 1388 1393 1396 1398 1399 1403 1408 1411 1412 1412 1413 1415 1416 1419 1420 1422 1426 1428 1431 1434 1435 1438 1443 1444 1444 1449 1453 1457 1459 1459 1461 1462 1463 1465 1467 1468 1472 1475 1475 1475 1474 1471 1471 1471 1471 1475 1482 1485 1485 1487 1488 1490 1493 1497 1499 1493 1489 1494 1495 1485 1481 1483 1478 1475 1477 1477 1476 1477 1477 1478 1480 1481 1482 1484 1485 1487 1489 1491
1371 1373 1375 1377 1380 1383 1385 1385 1386 1386 1388 1391 1394 1395 1398 1401 1404 1407 1410 1412 1413 1413 1415 1419 1419 1418 1419 1422 1426 1432 1436 1440 1444 1444 1444 1448 1453 1457 1460 1461 1462 1463 1464 1466 1467 1467 1470 1473 1473 1474 1473 1470 1468 1470 1471 1472 1475 1476 1477 1480 1483 1487 1492 1495 1495 1487 1484 1491 1488 1477 1476 1479 1474 1471 1473 1472 1472 1475 1475 1476 1478 1479 1481 1483 1484 1486 1488 1489
1372 1374 1376 1377 1379 1380 1380 1381 1385 1388 1389 1391 1394 1395 1395 1398 1400 1402 1405 1411 1414 1412 1411 1415 1416 1415 1416 1418 1421 1427 1432 1436 1440 1442 1445 1448 1452 1455 1459 1461 1463 1464 1465 1466 1467 1467 1468 1469 1469 1472 1475 1472 1470 1472 1473 1473 1474 1475 1475 1476 1479 1484 1487 1489 1488 1484 1482 1483 1478 1472 1472 1472 1468 1468 1470 1469 1471 1473 1474 1476 1478 1479 1480 1481 1482 1485 1486 1488
1373 1374 1376 1378 1380 1382 1382 1383 1388 1391 1390 1391 1394 1394 1393 1395 1397 1400 1402 1406 1410 1410 1410 1411 1412 1413 1416 1417 1418 1421 1423 1424 1429 1435 1441 1447 1450 1452 1454 1455 1457 1463 1466 1465 1466 1468 1469 1468 1466 1471 1476 1474 1471 1473 1474 1474 1475 1475 1475 1475 1477 1482 1485 1487 1485 1482 1482 1482 1476 1473 1475 1471 1465 1465 1467 1469 1470 1471 1474 1476 1477 1477 1478 1479 1481 1483 1484 1486
1373 1374 1375 1378 1381 1383 1383 1384 1387 1390 1390 1390 1391 1392 1393 1393 1394 1398 1402 1404 1405 1406 1408 1409 1410 1414 1417 1418 1418 1418 1419 1421 1424 1428 1433 1438 1441 1444 1447 1448 1451 1460 1465 1465 1465 1467 1469 1469 1467 1471 1479 1477 1471 1472 1475 1476 1477 1478 1478 1477 1477 1480 1481 1481 1478 1476 1478 1480 1478 1479 1479 1469 1461 1462 1466 1468 1469 1470 1472 1474 1475 1476 1477 1478 1479 1480 1481 1483
1374 1375 1376 1377 1381 1385 1385 1384 1386 1388 1387 1386 1387 1390 1391 1392 1393 1397 1402 1405 1405 1405 1407 1408 1409 1413 1419 1419 1417 1417 1419 1422 1425 1428 1431 1435 1437 1439 1443 1445 1446 1452 1458 1461 1463 1463 1465 1467 1467 1471 1476 1473 1469 1471 1474 1479 1483 1481 1475 1472 1473 1473 1473 1472 1471 1470 1471 1473 1475 1476 1470 1460 1457 1461 1465 1466 1467 1469 1470 1471 1472 1473 1473 1475 1475 1476 1478 1480